STARLINK-1318 (45416 NORAD) Tracking and Keplerian Element Data

This shows tracking and keplerian element data for the satellite.

Feedback or suggestion? Click here.




ElementValue
Catalog45416
NameSTARLINK-1318
Epoch Orbit1098
Epoch Day146.16668981
Epoch Year2020
RAAN283.0713
Inclination53
Eccentricity0.000132
Argument of Perigee7.8616
Mean Anonmoly105.4911
Mean Motion15.62735167
Decay Rate0.0003351
L11 45416U 20019BJ 20146.16668981 .00033510 00000-0 37054-3 0 9994
L22 45416 53.0000 283.0713 0001320 7.8616 105.4911 15.62735167 10980

Live tracking and technical data element details for STARLINK-1318 (NORAD 45416). STARLINK-1318 can be tracked NOW for your location showing map with azimuth and elevation plus other details from your city location.

Track the satellite on the map from your city or location and see movement details for azimuth, elevation, latitude, longitude, range, height, and movement on the map or in text.







IsCatalogInMostPopularTable: catalog: 45416, numindb: 26
Update: records affected: 1



GetName: 45416 STARLINK-1318

Hit Count: updated at: Tue, 26 May 2020 03:19:01 GMT